Vorticity
5 5 5 5 5 5 5 5 5 4 5 5 5 5 5 6 7 8 8 9 9 10 10 11 11 12 12 11 9 8 7 7 8 10 10 8 7 6 6 5 3 4 5 6 6
5 5 5 6 6 6 6 6 6 6 6 6 5 6 6 7 8 8 8 6 7 8 9 10 11 12 13 11 11 10 8 12 10 9 6 4 5 6 6 7 8 7 8 7 7
5 6 6 6 6 6 7 7 7 8 8 7 6 6 6 7 7 3 5 7 6 6 7 8 8 10 13 12 11 12 9 10 9 9 10 9 9 7 7 7 6 6 7 8 9
5 5 6 6 6 7 7 6 6 6 6 6 6 7 7 6 8 3 5 7 8 7 8 8 9 7 8 9 10 8 10 10 8 8 10 9 8 6 8 8 10 9 6 7 6
6 6 7 7 7 7 6 6 6 6 6 6 7 8 7 7 8 6 7 6 8 8 8 8 10 11 9 11 10 10 6 9 11 5 3 1 -1 25 11 12 11 11 13 12 9
6 7 8 8 8 8 8 8 7 6 7 7 7 7 7 7 9 7 8 6 8 8 8 7 8 8 11 9 12 11 10 7 3 -7 13 8 14 6 11 1 8 12 15 11 13
7 7 7 7 8 9 10 11 11 8 7 7 7 7 6 4 7 11 6 7 8 7 6 3 2 4 6 6 4 7 6 -5 8 -5 -2 5 18 -5 20 0 13 6 7 17 13
7 7 7 7 7 8 8 9 11 12 9 8 8 8 5 6 10 12 3 7 8 6 5 4 4 3 5 4 5 8 12 7 5 4 7 -1 4 19 0 16 11 7 12 17 16
7 7 7 8 9 8 8 9 10 12 9 8 8 7 12 17 12 12 5 6 7 8 5 4 5 5 5 5 8 16 2 3 8 1 3 4 7 -0 12 13 10 7 9 11 13
7 7 7 8 10 10 8 9 9 9 9 9 8 12 13 -0 13 10 6 6 6 6 7 7 8 7 6 3 1 -1 4 10 2 2 10 2 3 8 16 12 6 7 12 14 17
7 7 7 8 10 10 9 10 11 12 15 13 -7 -6 3 0 12 5 7 9 4 6 3 5 7 5 3 6 8 5 6 7 5 5 6 2 7 5 15 13 5 5 7 10 15
7 7 8 8 9 11 9 9 10 7 10 8 8 9 11 5 5 7 5 9 9 7 6 6 4 4 5 11 8 4 6 7 10 12 -2 0 13 19 18 11 3 4 8 8 10
7 7 7 8 9 10 10 8 7 8 10 9 12 10 11 8 7 4 5 7 8 9 8 7 -6 -2 3 2 11 2 8 7 6 6 4 12 20 12 11 8 4 3 7 5 9
7 7 7 6 7 9 9 10 8 7 20 16 15 19 21 17 14 8 6 6 7 11 12 22 17 15 13 14 4 0 15 13 4 11 8 -11 1 5 7 10 4 3 6 5 7
8 7 7 6 7 8 9 8 10 11 12 9 14 9 7 11 2 14 22 16 9 6 1 -7 0 5 5 4 8 -1 10 5 7 4 10 27 19 14 9 11 7 9 6 6 6
9 9 8 8 7 8 8 9 8 20 12 6 5 6 9 14 12 5 3 6 3 3 7 8 8 9 10 11 9 5 5 7 15 17 22 20 3 23 15 13 6 10 7 7 7
10 11 10 10 9 8 9 10 20 10 7 12 9 10 0 -0 4 5 4 3 3 12 17 19 17 17 13 11 12 8 6 14 15 13 3 13 15 -27 -5 -5 4 12 11 7 5
12 12 12 11 10 10 11 14 11 4 -0 -4 5 9 9 6 11 13 14 20 20 15 5 15 20 23 17 20 -8 20 5 -11 10 7 1 8 12 -12 11 16 16 14 9 7 4
7 9 11 11 11 12 12 16 -3 5 13 6 1 19 25 24 9 4 10 12 12 21 4 6 14 14 10 9 6 21 9 12 -2 15 11 9 25 3 4 9 11 13 12 7 5
6 7 8 9 12 11 10 4 -1 -2 -2 1 6 13 2 9 16 8 10 4 6 11 14 13 16 24 14 14 7 2 1 4 11 3 10 22 11 -29 -12 14 19 14 14 12 11
6 6 11 7 6 8 9 8 10 11 12 18 11 3 -0 2 6 13 14 3 4 5 8 10 15 -4 6 14 14 16 7 0 1 -2 4 4 18 10 11 17 16 13 12 11 7
8 10 5 9 11 10 11 11 9 6 7 6 8 11 13 14 17 18 7 5 -0 -3 -1 2 4 6 5 7 6 5 3 14 -3 21 -0 1 7 10 15 22 31 17 15 16 12
10 9 12 16 11 6 7 7 11 12 9 7 2 -0 -1 2 11 19 16 12 12 12 8 3 4 13 21 27 37 29 24 25 18 3 8 -7 -16 -13 -18 -5 2 6 1 9 5
14 14 8 12 16 17 12 5 13 15 17 14 8 7 9 11 13 0 -2 6 -3 -4 -11 -4 9 -10 -42 -42 -34 -9 -1 1 9 19 -0 -25 -15 -15 -3 14 12 14 13 8 -0
9 12 6 -6 -2 8 8 -0 6 7 8 9 10 3 3 8 4 8 7 7 6 11 5 11 2 9 5 5 8 7 9 7 3 3 -2 -8 -12 -15 -6 5 5 -4 12 13 6
12 12 13 9 10 14 14 10 8 14 12 12 16 15 12 10 5 2 10 14 17 18 18 27 24 8 2 9 24 25 24 14 17 21 18 21 19 35 39 28 21 22 8 13 19
28 25 28 23 21 20 22 18 13 14 23 11 12 13 14 17 17 16 14 14 9 9 10 3 8 6 31 34 -20 56 68 43 19 17 20 23 18 11 8 10 19 22 20 29 25
Height
3132 3133 3134 3134 3134 3134 3134 3133 3133 3134 3134 3134 3133 3132 3132 3131 3131 3130 3130 3129 3128 3127 3126 3125 3125 3125 3125 3125 3126 3126 3128 3128 3128 3128 3128 3128 3128 3129 3130 3130 3131 3130 3130 3130 3130
3132 3133 3133 3133 3133 3133 3133 3133 3133 3133 3133 3132 3131 3130 3130 3131 3129 3130 3129 3128 3127 3126 3125 3124 3123 3123 3123 3124 3124 3125 3126 3126 3126 3126 3126 3126 3126 3126 3127 3126 3126 3126 3126 3126 3127
3132 3133 3133 3133 3133 3132 3132 3132 3131 3131 3131 3130 3129 3129 3130 3129 3129 3129 3128 3127 3126 3125 3124 3124 3123 3122 3122 3122 3123 3123 3124 3124 3124 3124 3124 3124 3123 3123 3122 3122 3122 3123 3123 3123 3123
3132 3132 3132 3131 3131 3131 3131 3131 3130 3129 3128 3128 3128 3128 3128 3128 3130 3128 3126 3126 3125 3124 3124 3123 3123 3122 3122 3122 3122 3122 3122 3122 3123 3123 3123 3122 3121 3120 3119 3119 3119 3118 3119 3119 3120
3131 3131 3131 3130 3130 3130 3129 3129 3128 3127 3127 3126 3126 3126 3127 3127 3127 3126 3125 3124 3124 3124 3123 3123 3122 3122 3122 3121 3121 3121 3121 3121 3122 3122 3121 3120 3119 3117 3116 3116 3115 3114 3114 3114 3115
3130 3130 3130 3129 3127 3127 3126 3125 3125 3125 3125 3125 3124 3124 3125 3125 3125 3124 3124 3123 3123 3123 3123 3123 3122 3122 3121 3121 3121 3120 3120 3121 3121 3120 3120 3118 3116 3115 3115 3114 3112 3111 3110 3110 3111
3129 3128 3127 3126 3125 3124 3123 3123 3122 3122 3122 3122 3122 3122 3122 3123 3123 3122 3122 3122 3122 3122 3122 3122 3122 3122 3121 3121 3120 3120 3120 3119 3119 3118 3118 3116 3114 3113 3112 3111 3109 3108 3107 3106 3106
3127 3126 3125 3124 3123 3122 3121 3120 3120 3120 3120 3119 3119 3120 3119 3119 3120 3120 3119 3120 3120 3121 3121 3120 3120 3120 3120 3120 3119 3118 3118 3117 3116 3116 3115 3115 3112 3110 3110 3108 3107 3105 3104 3103 3103
3125 3124 3123 3122 3121 3120 3119 3118 3118 3117 3117 3117 3117 3117 3117 3116 3116 3116 3117 3118 3118 3119 3118 3118 3118 3118 3118 3117 3117 3116 3115 3115 3114 3113 3112 3112 3110 3107 3105 3104 3104 3102 3101 3100 3099
3123 3123 3122 3121 3119 3118 3117 3116 3115 3115 3114 3114 3114 3116 3114 3114 3113 3114 3114 3115 3116 3116 3116 3116 3116 3115 3115 3114 3114 3114 3113 3111 3111 3111 3108 3107 3106 3103 3102 3100 3100 3099 3098 3097 3096
3122 3121 3120 3119 3117 3116 3115 3114 3115 3114 3111 3112 3111 3111 3111 3111 3111 3111 3112 3113 3113 3114 3113 3113 3114 3113 3112 3111 3111 3110 3110 3109 3108 3106 3105 3103 3101 3099 3098 3097 3097 3097 3096 3095 3094
3120 3119 3118 3116 3115 3114 3112 3111 3110 3111 3109 3107 3107 3107 3107 3108 3108 3108 3110 3111 3110 3110 3110 3112 3110 3110 3109 3108 3108 3107 3106 3105 3104 3103 3102 3099 3097 3095 3094 3094 3094 3094 3094 3093 3092
3118 3117 3115 3114 3113 3112 3110 3109 3108 3107 3106 3104 3102 3102 3104 3105 3104 3106 3107 3107 3107 3107 3107 3107 3108 3106 3106 3105 3104 3104 3103 3102 3102 3099 3098 3095 3093 3092 3092 3091 3091 3091 3091 3090 3090
3115 3115 3113 3113 3113 3110 3109 3107 3106 3105 3103 3102 3099 3099 3099 3100 3101 3101 3102 3105 3104 3104 3104 3104 3103 3102 3102 3101 3101 3100 3098 3098 3097 3096 3095 3094 3092 3089 3088 3088 3088 3087 3087 3087 3087
3113 3112 3111 3110 3110 3109 3108 3106 3105 3104 3104 3100 3098 3098 3097 3099 3098 3098 3099 3099 3100 3100 3102 3100 3099 3098 3098 3098 3097 3096 3095 3094 3093 3092 3091 3089 3090 3083 3083 3083 3083 3083 3083 3083 3083
3111 3110 3109 3108 3107 3107 3105 3104 3104 3105 3098 3097 3096 3096 3096 3096 3096 3096 3097 3098 3098 3097 3096 3096 3094 3094 3093 3093 3092 3092 3091 3090 3088 3087 3087 3082 3084 3078 3078 3079 3078 3078 3079 3079 3080
3108 3107 3106 3105 3105 3104 3103 3103 3104 3100 3098 3096 3095 3095 3095 3094 3094 3093 3094 3094 3094 3093 3091 3090 3089 3089 3088 3088 3087 3087 3088 3087 3088 3087 3082 3078 3079 3073 3073 3073 3073 3073 3074 3075 3076
3105 3104 3103 3102 3102 3101 3101 3102 3100 3096 3094 3094 3093 3092 3092 3091 3090 3090 3089 3089 3088 3088 3087 3086 3085 3083 3083 3083 3084 3083 3085 3084 3089 3084 3077 3076 3069 3063 3066 3066 3066 3067 3069 3070 3071
3103 3102 3101 3100 3099 3098 3098 3097 3095 3094 3093 3092 3091 3089 3088 3087 3088 3087 3086 3085 3084 3084 3086 3082 3081 3079 3079 3079 3082 3080 3080 3081 3079 3077 3077 3065 3059 3058 3058 3059 3059 3061 3063 3065 3067
3101 3100 3099 3097 3096 3095 3095 3094 3092 3092 3091 3089 3088 3088 3086 3086 3086 3085 3084 3082 3081 3080 3080 3079 3078 3076 3075 3076 3076 3076 3077 3076 3077 3079 3074 3057 3054 3051 3053 3054 3054 3056 3058 3060 3062
3098 3097 3096 3094 3093 3092 3091 3090 3089 3088 3087 3087 3085 3084 3084 3083 3082 3082 3081 3080 3078 3077 3076 3076 3075 3072 3072 3071 3071 3071 3070 3071 3072 3069 3065 3061 3047 3048 3049 3050 3052 3054 3055 3056 3057
3095 3094 3092 3090 3091 3088 3086 3086 3086 3084 3084 3083 3082 3081 3080 3080 3079 3079 3078 3077 3075 3074 3074 3073 3070 3067 3067 3066 3066 3065 3064 3065 3066 3062 3059 3057 3038 3045 3047 3048 3049 3051 3052 3052 3052
3091 3089 3087 3086 3085 3084 3083 3083 3082 3081 3080 3079 3078 3078 3077 3076 3077 3074 3073 3072 3072 3072 3070 3069 3067 3065 3062 3063 3061 3060 3060 3061 3060 3059 3052 3056 3038 3043 3044 3047 3048 3048 3047 3047 3047
3087 3086 3084 3082 3082 3081 3080 3079 3078 3076 3076 3075 3075 3074 3073 3073 3072 3071 3070 3069 3069 3068 3067 3066 3062 3062 3059 3060 3058 3056 3057 3057 3056 3051 3047 3034 3033 3038 3040 3040 3040 3040 3038 3038 3038
3083 3082 3080 3079 3078 3078 3077 3077 3075 3073 3073 3072 3070 3070 3070 3069 3068 3066 3065 3065 3064 3062 3061 3060 3054 3054 3051 3052 3049 3046 3046 3046 3044 3041 3039 3023 3028 3033 3032 3031 3031 3029 3028 3026 3025
3078 3078 3076 3075 3074 3074 3072 3072 3072 3070 3070 3068 3067 3066 3065 3064 3063 3060 3059 3058 3055 3054 3054 3052 3047 3044 3039 3042 3040 3033 3034 3032 3030 3029 3025 3024 3018 3025 3022 3020 3019 3019 3018 3018 3018
3074 3074 3073 3072 3070 3071 3070 3068 3068 3066 3065 3064 3063 3061 3060 3059 3056 3054 3051 3049 3049 3046 3046 3045 3043 3043 3032 3034 3032 3025 3022 3022 3023 3023 3021 3018 3016 3014 3013 3011 3010 3009 3010 3010 3009